Temp
74 78 81 81 83 83 83 83 83 83 83 83 83 83 83 83 84 84 84 84 84 84 85 85 84 83 84 84 84 85 84 84 84 84 84 84 83 83 83 84 85 92 83
78 79 78 81 83 83 83 83 83 83 83 83 83 83 83 84 84 84 84 84 84 84 84 84 84 84 84 84 84 84 84 84 84 84 84 84 84 83 83 84 86 87 83
76 87 88 82 83 83 83 82 83 83 83 83 83 84 84 84 84 84 84 84 85 84 84 84 84 84 84 84 84 84 84 84 84 84 86 96 91 84 83 83 83 82 82
84 91 93 82 83 83 83 82 83 84 84 84 84 84 84 84 83 85 85 85 84 84 84 84 84 84 84 84 84 84 84 83 83 84 95 98 95 83 83 83 82 82 82
87 90 90 83 83 83 83 82 83 83 84 84 84 84 84 84 84 85 85 85 85 84 84 84 84 84 84 84 83 83 83 83 83 89 94 95 95 85 83 82 82 82 83
94 93 86 83 84 83 83 83 83 84 84 84 84 84 84 84 85 85 85 84 84 85 84 84 84 84 84 84 83 83 83 83 83 94 93 90 94 83 83 84 83 82 82
92 92 92 83 83 83 83 83 83 84 84 84 84 83 84 84 84 84 84 84 84 85 85 85 85 84 84 84 83 83 83 83 94 95 93 94 90 83 83 83 83 82 82
93 92 91 83 83 83 83 83 82 84 84 84 84 84 84 84 84 84 84 84 84 84 84 84 84 84 84 83 83 83 83 84 92 94 93 95 82 82 83 82 82 82 81
91 93 91 91 87 83 83 83 83 84 84 84 84 84 84 84 84 84 84 84 84 84 84 84 84 84 84 83 83 83 83 83 95 98 97 97 80 81 83 82 82 81 82
90 89 90 91 90 88 86 83 83 83 84 85 84 84 84 85 85 84 83 84 84 84 84 84 84 83 83 83 83 84 84 84 99 97 98 94 81 82 83 82 82 81 81
92 90 91 91 88 87 88 88 84 84 84 85 86 85 86 97 95 92 84 84 84 84 84 84 84 83 83 83 83 84 83 99 101 100 102 81 81 82 83 82 81 81 81
90 92 93 92 91 91 94 89 90 91 93 93 92 91 94 94 93 92 88 84 84 84 84 83 83 83 83 94 95 85 94 99 97 99 98 81 81 81 82 82 82 81 81
92 93 91 92 89 92 92 93 94 94 94 92 90 90 92 93 92 94 96 95 95 85 96 90 89 91 92 93 93 92 96 95 99 99 93 81 81 81 82 82 82 81 81
91 92 93 92 89 91 92 93 94 94 94 93 92 89 89 90 89 88 93 94 91 94 93 91 92 89 87 91 91 92 94 96 99 95 94 82 81 81 82 82 82 81 81
89 90 91 90 88 89 86 92 92 92 93 94 93 91 91 92 89 90 90 92 93 86 89 90 89 88 85 89 91 91 92 94 95 91 93 84 81 81 81 82 82 82 82
90 90 91 90 89 88 88 88 89 91 93 93 94 93 89 91 90 91 90 90 91 93 93 86 87 88 86 88 91 91 91 93 93 92 94 96 81 81 81 82 82 83 82
91 91 90 89 90 87 86 88 89 93 92 93 94 91 90 89 88 87 91 90 89 91 89 84 87 85 86 88 89 91 93 92 93 93 94 96 94 80 81 81 81 82 82
92 89 90 91 89 87 86 89 90 93 93 93 94 94 90 89 88 88 91 92 93 88 90 86 83 89 90 88 87 90 92 93 93 92 94 93 97 99 84 81 81 81 81
91 89 87 87 87 87 87 89 89 89 90 93 94 94 91 90 90 89 91 92 90 91 90 91 90 89 85 89 88 86 90 92 92 95 94 92 93 95 97 85 81 80 81
91 90 88 88 87 86 89 87 90 91 91 92 92 93 90 91 89 89 90 89 90 90 91 91 85 88 87 84 90 88 90 92 93 92 93 95 95 95 95 94 93 91 81
91 89 88 87 86 87 88 88 88 88 90 91 92 90 89 89 89 88 90 90 88 88 87 87 86 83 87 90 81 86 88 90 90 92 94 95 94 95 94 95 94 96 95
91 89 88 87 86 86 89 88 90 90 92 92 92 90 89 88 87 85 86 85 87 87 83 83 82 80 81 90 82 78 82 88 93 94 93 93 93 95 95 94 93 92 93
91 90 89 88 87 87 87 89 88 87 88 88 89 89 87 88 87 87 84 82 80 80 81 84 84 82 84 88 83 81 78 81 89 93 91 92 92 94 95 95 94 93 92
94 94 91 89 88 88 87 87 85 86 86 90 87 90 90 89 88 88 86 84 83 84 79 81 82 81 80 83 81 86 82 84 82 83 91 91 89 88 89 93 95 94 92
95 94 93 90 87 87 86 85 87 85 90 88 85 84 83 85 87 88 87 86 85 85 83 83 82 81 80 79 84 82 80 81 81 79 80 86 90 93 93 92 93 95 93
94 94 93 88 85 86 86 86 82 81 82 86 86 86 90 92 93 91 89 86 86 86 85 86 84 82 80 80 79 80 83 80 81 81 81 83 85 91 92 96 94 94 95
MSLP
1016.05 1016.03 1016.00 1016.14 1016.18 1016.30 1016.34 1016.50 1016.63 1016.79 1016.97 1017.10 1017.31 1017.37 1017.55 1017.83 1017.98 1018.12 1018.19 1018.36 1018.39 1018.40 1018.51 1018.71 1018.81 1018.99 1018.70 1018.83 1018.93 1019.13 1019.27 1019.24 1019.23 1019.25 1019.34 1019.45 1019.69 1019.88 1019.86 1019.75 1019.46 1019.45 1020.17
1015.98 1016.17 1016.51 1016.34 1016.29 1016.61 1016.72 1016.89 1017.04 1017.18 1017.39 1017.60 1017.76 1017.85 1017.91 1018.20 1018.35 1018.42 1018.48 1018.63 1018.63 1018.62 1018.80 1018.94 1018.98 1019.13 1019.31 1019.29 1019.42 1019.55 1019.61 1019.59 1019.50 1019.49 1019.50 1019.60 1019.94 1020.12 1020.14 1019.95 1019.67 1020.16 1020.37
1016.10 1015.70 1016.25 1016.48 1016.48 1016.71 1016.94 1017.17 1017.46 1017.58 1017.71 1018.02 1018.14 1018.23 1018.35 1018.57 1018.69 1018.74 1018.84 1018.83 1018.95 1019.08 1019.15 1019.28 1019.44 1019.48 1019.73 1019.71 1019.89 1019.91 1019.98 1019.96 1019.94 1019.72 1019.29 1018.56 1019.60 1020.31 1020.39 1020.48 1020.56 1020.62 1020.68
1015.65 1015.44 1015.64 1016.59 1016.65 1017.01 1017.29 1017.49 1017.77 1017.85 1018.15 1018.33 1018.47 1018.61 1018.73 1018.83 1018.83 1019.02 1019.11 1019.21 1019.30 1019.42 1019.51 1019.59 1019.74 1019.80 1019.97 1019.99 1020.17 1020.17 1020.21 1020.22 1020.19 1019.83 1018.66 1018.57 1019.26 1020.55 1020.57 1020.79 1020.89 1020.97 1021.00
1015.29 1015.22 1016.09 1016.72 1016.99 1017.26 1017.60 1017.76 1017.89 1018.19 1018.43 1018.58 1018.73 1018.85 1019.00 1019.11 1019.23 1019.27 1019.40 1019.52 1019.64 1019.76 1019.86 1019.98 1020.04 1020.10 1020.21 1020.33 1020.42 1020.43 1020.55 1020.47 1020.25 1019.60 1019.09 1019.10 1019.14 1020.62 1020.87 1020.99 1021.13 1021.16 1021.08
1014.36 1015.05 1016.66 1016.99 1017.19 1017.60 1017.82 1018.09 1018.10 1018.50 1018.72 1018.89 1019.11 1019.13 1019.20 1019.40 1019.45 1019.52 1019.62 1019.77 1019.74 1019.95 1020.13 1020.26 1020.36 1020.43 1020.50 1020.56 1020.67 1020.72 1020.78 1020.69 1020.31 1019.56 1019.71 1019.92 1019.40 1020.78 1020.97 1021.05 1021.17 1021.36 1021.49
1014.71 1015.42 1016.51 1017.22 1017.47 1017.82 1018.08 1018.37 1018.67 1018.86 1019.10 1019.19 1019.37 1019.51 1019.64 1019.74 1019.85 1019.88 1019.97 1020.03 1020.09 1020.13 1020.28 1020.42 1020.58 1020.70 1020.78 1020.85 1020.85 1020.94 1021.01 1020.81 1019.79 1019.56 1019.95 1019.59 1020.32 1021.02 1021.02 1021.11 1021.32 1021.54 1021.68
1014.90 1015.72 1016.75 1017.66 1017.88 1018.11 1018.32 1018.68 1018.92 1019.16 1019.27 1019.45 1019.60 1019.80 1019.90 1020.05 1020.16 1020.23 1020.35 1020.39 1020.38 1020.47 1020.52 1020.59 1020.77 1020.91 1021.02 1021.11 1021.11 1021.12 1021.12 1020.84 1019.99 1019.83 1020.05 1019.91 1021.11 1021.28 1021.24 1021.24 1021.39 1021.53 1021.72
1015.68 1015.80 1016.72 1017.24 1017.95 1018.45 1018.55 1018.93 1019.11 1019.33 1019.45 1019.62 1019.78 1019.99 1020.15 1020.24 1020.36 1020.41 1020.51 1020.54 1020.59 1020.69 1020.76 1020.85 1020.96 1021.05 1021.09 1021.21 1021.27 1021.20 1021.14 1020.95 1019.71 1019.55 1019.77 1019.64 1021.16 1021.38 1021.38 1021.41 1021.50 1021.60 1021.71
1016.07 1016.76 1016.77 1017.15 1017.48 1018.10 1018.72 1019.00 1019.30 1019.56 1019.71 1019.78 1020.01 1020.20 1020.30 1020.34 1020.44 1020.46 1020.58 1020.70 1020.83 1020.84 1020.91 1020.97 1021.09 1021.18 1021.19 1021.21 1021.21 1021.22 1021.08 1020.75 1019.14 1019.50 1019.73 1020.00 1021.07 1021.32 1021.35 1021.52 1021.58 1021.70 1021.78
1015.97 1016.65 1016.71 1017.13 1017.86 1018.27 1018.47 1019.03 1019.49 1019.71 1019.87 1020.03 1020.19 1020.33 1020.34 1019.28 1019.56 1019.82 1020.53 1020.81 1020.93 1020.94 1021.01 1021.04 1021.13 1021.18 1021.25 1021.12 1021.11 1021.14 1020.92 1019.18 1019.13 1019.40 1019.16 1020.51 1021.04 1021.26 1021.36 1021.50 1021.62 1021.62 1021.71
1015.72 1016.28 1016.70 1016.93 1017.38 1017.81 1017.78 1018.73 1018.83 1019.17 1019.27 1019.41 1019.59 1019.89 1019.65 1019.66 1019.78 1019.93 1020.40 1020.85 1020.83 1020.85 1020.85 1020.91 1021.12 1021.12 1021.08 1020.11 1019.94 1020.80 1019.99 1019.41 1019.45 1019.39 1019.32 1020.45 1020.95 1021.14 1021.22 1021.39 1021.54 1021.57 1021.59
1015.71 1016.02 1016.80 1016.99 1017.57 1017.59 1017.73 1018.19 1018.28 1018.53 1018.82 1019.25 1019.64 1019.89 1019.65 1019.77 1019.93 1019.83 1019.57 1019.72 1019.74 1020.50 1019.59 1020.06 1020.46 1020.38 1019.88 1020.01 1020.01 1019.99 1019.37 1019.65 1019.04 1019.17 1019.44 1020.22 1020.66 1020.93 1021.02 1021.20 1021.36 1021.45 1021.50
1015.75 1016.16 1016.64 1016.96 1017.56 1017.62 1017.93 1018.10 1018.20 1018.21 1018.51 1018.80 1019.10 1019.72 1019.79 1019.79 1019.83 1020.07 1019.53 1019.48 1019.87 1019.54 1019.60 1020.06 1019.80 1020.42 1020.45 1020.10 1020.12 1019.89 1019.70 1019.45 1019.08 1019.55 1019.19 1019.75 1020.24 1020.60 1020.75 1020.91 1021.07 1021.22 1021.29
1015.84 1016.23 1016.73 1017.19 1017.68 1017.90 1018.34 1018.12 1018.27 1018.40 1018.56 1018.56 1018.99 1019.34 1019.51 1019.29 1019.45 1019.62 1019.62 1019.55 1019.35 1020.02 1019.86 1019.77 1019.88 1020.08 1020.43 1019.92 1019.92 1019.83 1019.65 1019.34 1019.32 1019.76 1019.30 1019.40 1019.89 1020.24 1020.40 1020.55 1020.73 1020.88 1021.00
1015.87 1016.31 1016.82 1017.33 1017.73 1018.11 1018.42 1018.53 1018.61 1018.57 1018.40 1018.71 1018.54 1018.73 1019.41 1019.26 1019.19 1019.11 1019.29 1019.42 1019.45 1019.12 1019.27 1019.85 1019.75 1019.70 1019.84 1019.76 1019.32 1019.50 1019.42 1019.32 1019.20 1019.22 1019.14 1018.54 1019.45 1019.90 1020.04 1020.14 1020.33 1020.46 1020.61
1015.76 1016.29 1016.76 1017.34 1017.62 1018.11 1018.43 1018.66 1018.69 1018.31 1018.69 1018.34 1018.35 1018.72 1018.99 1019.23 1019.18 1019.33 1018.92 1018.94 1019.22 1018.97 1019.20 1019.79 1019.38 1019.72 1019.68 1019.46 1019.22 1019.17 1019.01 1019.01 1018.91 1018.80 1018.88 1018.47 1018.30 1019.25 1019.56 1019.71 1019.89 1019.99 1020.06
1015.44 1016.20 1016.80 1017.22 1017.56 1017.94 1018.27 1018.36 1018.34 1018.16 1018.26 1018.12 1018.15 1018.24 1018.67 1018.96 1019.08 1019.03 1018.61 1018.34 1018.30 1019.09 1018.83 1019.13 1019.22 1018.66 1018.71 1019.05 1018.98 1018.75 1018.33 1018.39 1018.33 1018.38 1018.47 1018.41 1017.86 1017.66 1018.60 1018.95 1019.32 1019.41 1019.50
1015.45 1016.14 1016.73 1017.31 1017.42 1017.67 1017.90 1018.04 1018.13 1018.13 1018.22 1017.88 1017.73 1017.76 1017.99 1018.39 1018.52 1018.68 1018.33 1018.03 1018.38 1018.27 1018.24 1018.05 1018.21 1018.24 1018.63 1018.32 1018.57 1018.82 1018.33 1018.05 1017.91 1017.62 1017.55 1017.74 1017.82 1017.74 1017.46 1017.74 1018.30 1018.73 1018.87
1015.29 1015.92 1016.37 1016.72 1017.07 1017.48 1017.51 1017.91 1017.68 1017.56 1017.66 1017.64 1017.54 1017.49 1017.66 1017.88 1018.14 1018.11 1017.86 1017.87 1018.04 1017.84 1017.56 1017.55 1018.19 1018.10 1018.05 1018.35 1017.78 1017.78 1017.61 1017.36 1017.11 1017.14 1017.01 1017.11 1017.00 1017.04 1017.07 1017.12 1017.27 1017.58 1018.04
1014.75 1015.32 1015.90 1016.37 1016.82 1017.26 1017.37 1017.33 1017.26 1017.10 1017.08 1017.14 1017.13 1017.31 1017.54 1017.63 1017.70 1017.70 1017.30 1017.08 1017.36 1017.26 1017.32 1017.33 1017.59 1017.88 1017.47 1017.09 1017.66 1017.29 1016.98 1016.71 1016.64 1016.54 1016.29 1016.14 1016.07 1016.12 1016.33 1016.47 1016.61 1016.38 1016.35
1014.21 1014.80 1015.40 1015.96 1016.44 1016.86 1016.86 1016.97 1016.87 1016.79 1016.48 1016.39 1016.46 1016.69 1016.99 1017.20 1017.27 1016.98 1016.74 1016.50 1016.46 1016.85 1017.02 1017.06 1017.10 1016.98 1017.07 1016.32 1016.81 1016.82 1015.91 1015.24 1014.97 1015.06 1015.34 1015.40 1015.33 1015.30 1015.31 1015.60 1015.84 1015.95 1016.05
1013.55 1014.13 1014.75 1015.43 1015.95 1016.37 1016.65 1016.67 1016.88 1016.96 1016.66 1016.43 1016.16 1016.16 1016.35 1016.41 1016.46 1016.46 1016.51 1016.49 1016.45 1016.35 1016.40 1016.32 1016.34 1016.30 1015.98 1015.63 1016.20 1016.27 1015.42 1014.32 1014.10 1014.07 1014.47 1014.81 1014.65 1014.64 1014.55 1014.58 1014.86 1015.13 1015.45
1012.84 1013.41 1014.18 1014.87 1015.43 1015.87 1016.21 1016.30 1016.28 1016.12 1015.78 1015.55 1015.77 1015.60 1015.69 1015.79 1015.76 1015.70 1015.57 1015.73 1015.63 1015.74 1015.76 1015.69 1015.80 1015.70 1015.78 1015.18 1015.52 1015.67 1015.74 1015.14 1014.42 1013.86 1013.80 1013.98 1014.61 1014.65 1014.36 1014.17 1013.98 1014.18 1014.68
1012.51 1013.01 1013.66 1014.45 1015.08 1015.48 1015.80 1016.11 1015.87 1015.79 1015.38 1015.60 1015.83 1015.82 1015.70 1015.44 1015.27 1014.90 1014.84 1014.88 1014.78 1014.88 1014.76 1014.93 1014.99 1015.07 1015.04 1014.82 1014.30 1014.27 1014.77 1014.57 1014.81 1014.60 1013.34 1013.21 1013.20 1012.96 1013.34 1013.52 1013.52 1013.36 1013.74
1012.33 1012.88 1013.32 1014.29 1014.88 1015.22 1015.49 1015.68 1016.06 1016.11 1015.96 1015.61 1015.35 1015.31 1014.71 1014.26 1013.90 1013.64 1013.98 1014.14 1014.08 1014.01 1014.05 1014.02 1013.98 1014.11 1014.21 1014.11 1013.99 1013.72 1013.83 1013.89 1013.75 1013.51 1012.99 1012.79 1012.49 1012.13 1012.20 1012.12 1012.38 1012.62 1012.78
Wind_Speed
2 4 5 13 14 16 17 18 17 17 17 17 16 16 16 15 14 14 13 14 13 13 13 12 12 11 14 14 14 13 14 14 15 15 14 14 14 13 10 8 12 16 13
9 5 11 15 17 18 15 17 17 16 16 16 15 15 15 13 13 13 12 13 13 14 14 13 13 14 12 13 13 12 12 12 13 14 15 14 13 12 8 11 14 14 13
13 12 15 14 18 19 18 18 15 15 14 14 14 14 13 12 13 13 13 12 13 13 14 13 13 13 12 12 11 12 11 9 11 7 9 10 12 9 9 11 12 12 12
15 14 16 14 16 18 17 19 15 14 14 13 13 12 12 12 13 12 13 12 13 13 13 13 12 13 12 13 11 10 8 11 7 7 6 9 13 9 10 12 11 10 11
13 13 16 14 15 17 17 15 15 13 13 12 12 13 13 12 12 12 12 11 11 11 11 12 11 11 11 12 10 11 9 7 3 5 6 6 8 10 9 9 12 9 5
15 15 16 14 15 16 16 14 13 14 12 11 11 12 12 12 12 11 11 10 9 11 11 10 11 11 11 10 9 10 8 4 8 7 6 4 8 10 9 6 7 8 8
14 14 16 13 14 15 15 13 12 12 12 11 12 11 12 12 11 11 9 9 8 10 9 9 9 9 8 6 6 4 4 3 6 3 4 3 10 6 8 7 7 6 6
14 15 15 12 13 14 13 13 13 13 12 11 10 10 10 9 9 9 7 7 9 7 8 9 7 6 5 3 3 3 4 6 7 4 5 4 8 5 5 6 5 5 3
10 12 14 13 12 13 13 13 13 13 12 11 10 9 8 8 7 7 6 6 7 7 6 6 4 3 2 2 3 4 6 4 6 4 2 3 9 3 3 4 4 3 3
11 11 10 11 10 11 11 12 11 11 11 11 10 8 7 6 4 5 3 7 4 5 4 3 3 1 1 2 3 5 7 10 7 5 3 7 6 3 4 3 3 2 1
10 11 12 11 11 10 10 12 11 10 10 9 8 6 7 5 4 6 10 4 3 2 2 1 2 2 3 5 5 5 9 4 2 1 2 11 6 5 5 4 4 4 3
12 11 10 10 10 10 9 10 10 10 9 8 7 6 6 2 3 7 4 2 1 1 4 5 1 3 7 6 5 8 8 2 4 1 2 10 7 8 8 6 6 5 5
12 10 11 9 9 10 8 8 5 6 6 6 6 5 4 2 3 5 1 4 2 5 4 8 5 4 5 4 5 6 5 6 4 3 3 10 9 10 10 9 8 8 7
12 11 11 10 9 8 7 7 6 6 6 6 8 9 6 5 5 4 4 3 4 4 2 4 2 2 8 5 8 8 8 7 3 5 5 11 10 11 12 11 10 10 10
11 11 10 10 9 7 5 6 5 5 6 6 6 8 7 6 4 5 4 5 3 3 4 5 4 5 4 8 7 9 9 9 8 4 7 11 9 11 13 13 12 11 11
11 11 11 10 10 9 8 6 5 5 5 7 6 7 9 8 6 6 6 7 7 6 1 6 4 4 5 7 7 9 9 10 9 7 8 3 10 11 13 14 13 12 12
11 10 10 11 11 9 9 7 7 6 8 7 7 7 9 9 8 9 7 7 7 7 6 5 7 5 6 7 9 9 9 11 10 10 8 8 7 14 14 14 14 14 14
11 11 10 9 11 12 11 8 7 7 7 7 7 7 9 10 10 9 9 9 8 6 7 5 8 6 7 7 7 8 8 10 11 11 10 8 9 7 15 16 16 16 15
11 11 11 10 11 12 11 9 9 9 8 8 8 8 10 11 12 10 10 9 8 9 8 8 7 7 7 7 7 8 9 10 11 11 12 12 12 9 9 14 18 17 17
11 12 12 11 12 11 9 9 8 8 9 9 9 9 11 10 12 11 10 11 10 10 10 8 9 9 8 8 9 8 9 9 10 11 12 12 14 13 11 11 9 11 19
12 12 12 12 11 9 9 8 8 8 8 9 8 11 12 11 13 12 11 12 10 12 11 12 9 10 11 10 6 10 11 12 13 12 12 13 14 14 13 12 9 9 9
12 12 12 12 12 11 8 8 6 5 7 7 7 10 11 13 13 13 14 13 13 11 13 12 12 9 9 10 9 7 10 9 11 12 11 12 15 12 14 15 15 13 12
12 12 11 10 10 10 10 6 6 7 8 9 9 8 9 13 13 15 14 12 11 11 11 14 14 15 12 11 10 8 6 9 8 5 8 10 12 11 13 14 14 13 13
11 9 8 8 8 9 9 8 9 8 9 8 8 9 8 11 13 13 14 13 12 11 11 11 12 13 12 13 8 12 13 13 11 10 9 7 7 9 11 10 11 12 13
9 8 7 7 6 6 7 8 7 8 7 5 5 8 10 11 14 14 14 14 14 11 12 14 14 13 11 13 13 9 10 11 12 11 12 11 12 10 9 10 10 9 12
9 8 7 7 7 7 7 6 6 6 7 8 8 9 9 9 9 11 11 12 12 12 13 13 14 15 13 14 12 11 13 10 10 11 13 13 14 12 9 10 11 11 10
Wind_Direction
119 138 138 142 129 123 119 116 112 111 109 108 112 112 108 110 105 100 106 108 106 113 115 120 105 111 108 102 103 104 107 109 109 112 105 101 100 99 112 126 148 103 99
148 157 146 150 140 129 121 115 116 116 112 113 113 113 112 112 109 111 107 114 114 109 110 112 100 94 89 101 103 108 105 112 106 111 112 104 100 103 90 70 73 95 103
146 177 166 147 139 136 132 124 121 118 116 118 116 114 114 112 110 110 106 100 103 106 101 100 99 103 107 105 106 108 110 110 100 118 176 113 102 114 104 91 99 109 105
165 146 148 143 137 136 132 130 140 125 123 121 114 113 113 115 115 109 105 103 98 99 108 102 104 108 111 100 102 103 104 98 116 194 162 115 108 103 112 110 109 110 114
167 140 118 136 138 140 138 137 131 131 124 115 115 115 114 112 114 109 100 99 104 103 98 104 110 110 100 95 93 92 85 92 167 246 63 81 110 105 105 118 135 128 111
142 130 130 138 142 146 144 145 142 134 124 113 111 110 114 111 98 94 99 103 95 105 100 103 110 113 105 101 97 87 74 84 253 80 100 120 71 116 118 106 86 94 105
121 125 138 144 143 144 144 144 143 129 120 115 113 111 99 98 98 92 88 87 92 101 107 112 108 111 106 95 94 56 9 331 302 103 86 35 97 116 127 114 116 110 114
125 130 130 140 144 141 141 146 146 141 136 128 118 111 107 102 99 93 87 84 86 100 104 106 107 104 96 84 55 22 342 297 217 81 103 141 98 134 129 117 112 107 110
111 124 134 140 141 148 150 144 144 147 142 133 124 112 109 102 93 86 85 83 87 100 112 112 112 105 86 34 0 352 340 306 275 89 213 164 134 203 168 127 134 118 145
134 133 138 149 149 149 151 147 142 143 142 136 136 132 130 126 110 101 121 95 85 100 112 125 140 130 322 324 321 318 314 271 248 118 206 84 125 207 189 183 178 169 130
143 145 143 141 144 141 153 143 147 144 148 151 155 142 184 207 162 182 86 61 89 104 147 167 211 229 286 250 260 281 289 294 341 266 285 115 158 215 239 226 215 192 195
154 150 145 151 145 156 145 154 169 163 178 187 190 173 241 78 7 351 70 81 207 90 199 171 247 275 242 253 206 217 248 335 244 256 323 135 192 224 235 238 235 231 218
158 157 154 155 157 167 144 171 170 171 181 189 206 215 235 231 207 227 268 213 203 185 263 185 178 245 280 286 276 283 307 266 262 272 93 155 196 226 232 238 231 237 238
163 163 167 164 168 185 164 189 177 190 187 202 198 205 234 220 201 257 260 256 208 267 318 277 262 273 295 266 272 266 261 268 291 315 293 171 196 224 229 235 231 234 246
174 167 173 174 177 189 196 187 209 218 201 199 203 200 236 239 232 238 244 257 282 233 269 252 260 262 256 269 255 253 258 267 269 255 284 161 196 219 223 229 232 232 238
181 182 180 186 185 196 201 212 216 219 211 235 225 218 211 245 228 241 228 233 264 253 248 259 252 253 242 259 246 248 256 264 263 266 273 272 186 212 218 224 229 230 233
184 188 190 194 198 203 214 206 225 223 227 234 234 231 233 231 235 260 249 244 226 243 248 227 251 226 261 243 254 263 258 250 258 259 261 276 188 197 211 219 224 227 229
191 192 193 195 197 203 209 219 234 234 245 243 248 247 229 240 243 251 250 252 245 219 245 211 256 231 230 244 256 256 250 250 251 255 255 254 259 265 191 205 218 225 229
195 191 197 198 210 207 212 223 228 234 238 250 245 243 235 235 239 244 259 262 257 256 233 245 231 245 269 245 243 253 251 249 249 250 246 246 251 258 264 189 201 219 228
194 199 202 204 209 209 217 218 237 236 236 242 248 250 250 244 243 238 244 254 258 256 253 229 254 237 227 249 261 247 251 250 246 246 250 249 246 245 248 254 211 215 220
202 205 207 208 209 208 207 217 221 236 234 244 246 251 252 246 250 245 246 243 241 252 247 260 237 250 253 233 249 248 248 241 244 250 250 246 250 245 243 251 243 249 217
205 210 208 215 210 210 212 222 244 260 254 258 254 250 248 252 254 253 251 249 240 237 244 249 248 241 246 250 240 264 259 249 238 228 238 245 245 246 245 235 242 246 252
209 207 210 208 212 215 233 218 228 251 250 254 248 246 261 254 256 258 261 254 259 249 252 246 242 243 244 250 218 242 273 250 260 250 231 254 256 243 240 244 244 244 239
208 204 205 203 208 211 213 234 244 272 286 301 305 290 292 283 273 264 258 253 249 248 255 258 261 244 238 246 230 226 237 271 270 263 246 224 237 252 253 255 248 237 236
193 199 195 193 201 212 205 235 243 243 268 292 292 286 263 269 274 270 267 267 262 253 246 252 251 247 241 249 242 228 229 241 241 255 258 246 218 210 220 209 235 242 233
174 190 188 178 188 191 203 211 239 270 283 304 319 311 294 305 297 280 275 283 274 265 256 252 252 250 247 242 252 249 237 230 233 232 242 247 259 264 234 239 222 226 241